Regional Weather Roundup
Issued by NWS

Home | Current Version | Previous Version | Text Only | Print | Product List | Glossary On
Versions: 1 2 3 4 5 6 7 8 9 10 11 12 13 14 15 16 17 18 19 20 21 22 23 24 25 26 27 28 29 30 31 32 33 34 35 36 37 38 39 40 41 42 43 44 45 46 47 48 49 50
000
ASUS43 KLMK 271110
RWRKY
NATIONAL WEATHER SERVICE LOUISVILLE KY
600 AM EST THU NOV 27 2014

NOTE "FAIR" INDICATES FEW OR NO CLOUDS BELOW 12,000 FEET
WITH NO SIGNIFICANT WEATHER AND/OR OBSTRUCTIONS TO VISIBILITY.

KYZ001>023-026-027-061>063-070>075-271200-
WESTERN AND SOUTH CENTRAL KENTUCKY

CITY           SKY/WX    TMP DP  RH WIND       PRES   REMARKS
PADUCAH        CLOUDY    35  32  88 N10       30.31R WCI  27
HENDERSON      CLOUDY    32  27  80 NW9       30.28R WCI  24
OWENSBORO      FLURRIES  33  31  93 MISG      30.27R
HOPKINSVILLE   CLOUDY    36  36 100 NW9G17    30.26R WCI  29
BOWLING GREEN  CLOUDY    35  32  88 NW9       30.23R WCI  28
GLASGOW        CLOUDY    33  33 100 NW5       30.19R WCI  29
$$

KYZ024-025-028>034-038-045-046-053-271200-
NORTH CENTRAL KENTUCKY

CITY           SKY/WX    TMP DP  RH WIND       PRES   REMARKS
LOUISVILLE/SDF MOCLDY    31  26  82 N8        30.20R WCI  23
LOUISVILLE/LOU CLOUDY    30  26  85 NW6       30.20R WCI  24
FORT KNOX      CLOUDY    32  28  86 NW9       30.19R WCI  24
$$

KYZ035>037-039>044-047>052-055>060-089>105-271200-
NORTHEAST KENTUCKY

CITY           SKY/WX    TMP DP  RH WIND       PRES   REMARKS
LEXINGTON      LGT SNOW  30  28  92 NW12      30.14R FOG     WCI  20
COVINGTON      CLOUDY    28  21  74 NW10      30.14R WCI  19
FRANKFORT      CLOUDY    29  25  85 NW9       30.15R WCI  20
$$

KYZ054-064>069-076>088-106>120-271200-
SOUTHEAST KENTUCKY

CITY           SKY/WX    TMP DP  RH WIND       PRES   REMARKS
JACKSON        LGT SNOW  32  27  81 VRB5      30.07R WCI  27
LONDON         LGT SNOW  34  31  88 NW7       30.09R FOG     WCI  28
SOMERSET       LGT SNOW  32  32 100 NW3       30.13R
MIDDLESBORO    NOT AVBL
MONTICELLO     LGT SNOW  34  33  96 NW9       30.16R FOG     WCI  27
$$




USA.gov is the U.S. government's official web portal to all federal, state and local government web resources and services.